DECAYED
Showing default

CARBONITE 2, 43115 (Decayed)

Orbit data source: Space-Track

CARBONITE 2, 43115 was a UK payload satellite in LEO that was launched on Fri, 12 Jan 2018 UTC via a PSLV-XL launch vehicle from the Sirharikota (SRI). Payload-class satellites include a variety of spacecraft equipped with specific instruments for various scientific and technological missions. These include communications satellites like Starlink; space stations such as the ISS; scientific satellites like the Hubble; Earth observation satellites from companies like Planet Labs, Umbra, and HawkEye 360; GPS; miniature CubeSats for education and research; and military/defense satellites.

Not visible in the next 10 days
Identifier
43115, 2018-004E
Orbit
Decayed
Last TLE update
2 months ago
Origin
Manufacturer
SSTL (Astrium)
Mission
Decayed Commercial Imaging
Bus & Motor
CBNT, Unknown motor
Mass
100 kg wet, 100 kg dry
Launch date (UTC)
2018-01-12 (7 years ago)
Launch vehicle
PSLV-XL
Launch site
Sirharikota (SRI)
Object type
Payload
Rocket body
Debris
Shape & HBR
Box + Cyl, 1 m
Radar Cross Section
1.100 m², Medium (>0.1 m² and < 1m²)

Expand to show TLE details & history

TLE from 2 months ago
0 CARBONITE 2
1 43115U 18004E   25137.20304171  .04606220  23996-5  59053-3 0  9992
2 43115  97.1894 221.7544 0010900 254.1267 105.8829 16.35734082410069
Epoch: 2025-05-17T04:52Z
TLE epoch observation values (Epoch: 2025-05-17T04:52:22.803Z)
Latitude
-0.0001°
Longitude
-86.48834°
Altitude
182.39 km
Speed
7.796 km/s
True Right ascension
14h 47m 01s
True Declination
0° 00' 00"
Sunlit
Object was in full shadow at epoch
Visualization orbit readout
Visualization observer readout
Orbital elements
Apogee altitude
181.121 km
Perigee altitude
166.837 km
Semi-major axis
6,552.116 km
Eccentricity
0.00109
Inclination
97.1894°
RAAN
221.7544°
Arg. of periapsis
254.1267°
True anomaly
Unknown
Mean anomaly
105.8829°
Eccentric anomaly
Unknown
Mean motion
4.09233 °/min
Orbital period
87.97 mins
BSTAR
0.00059053
Loading maneuver chart data...
Loading SW <> Apogee altitude chart data...
Loading historical data...
Loading historical data...
Loading historical data...
Loading historical data...
Loading historical data...
Loading historical data...
Loading historical data...

CARBONITE 2 Visibility

Observer location: undefined°, undefined°

This satellite is decayed
Span
Click to sort rows by Start time (UTC) header in descending order
Start Az.
Max El. time (UTC)
Max El. Az.
Max El.
End time (UTC)
End Az.
|